CW5766 Weather Reports


time (UTC)temp
C
wind
direction
speed
KPH
gust
KPH
rain 1hr
cm
rain 24hr
cm
rain mn
cm
humidity
%
barometer
mb
20260505012328 8 223 3.2 12.9 0.00 0.00 0.05 81 1003.8
20260505011843 8 217 3.2 11.3 0.00 0.00 0.05 81 1003.8
20260505011341 8 212 3.2 11.3 0.00 0.00 0.05 81 1003.8
20260505010832 8 257 3.2 14.5 0.00 0.00 0.05 81 1003.6
20260505010345 8 212 8.0 14.5 0.00 0.00 0.05 81 1003.6
20260505005859 8 267 6.4 12.9 0.00 0.00 0.05 81 1003.6
20260505005333 8 227 1.6 6.4 0.00 0.00 0.05 81 1003.5
20260505004847 8 232 3.2 9.7 0.00 0.00 0.05 81 1003.5
20260505004330 8 213 3.2 11.3 0.00 0.00 0.05 80 1003.5
20260505003844 8 209 4.8 11.3 0.00 0.00 0.05 80 1003.4
20260505003356 8 176 3.2 12.9 0.00 0.00 0.05 80 1003.4
20260505002850 8 223 3.2 12.9 0.00 0.00 0.05 80 1003.4
20260505002339 8 220 1.6 9.7 0.00 0.00 0.05 80 1003.1
20260505001853 8 232 3.2 9.7 0.00 0.00 0.05 80 1003.1
20260505001335 8 202 3.2 11.3 0.00 0.00 0.05 80 1003.1
20260505000847 8 227 3.2 11.3 0.00 0.00 0.05 80 1002.8
20260505000322 8 241 4.8 12.9 0.00 0.00 0.05 80 1002.8
20260504235836 8 243 8.0 14.5 0.00 0.00 0.05 80 1002.8
20260504235330 8 260 6.4 14.5 0.00 0.00 0.05 79 1002.6
20260504234846 8 213 4.8 14.5 0.00 0.00 0.05 79 1002.6
20260504234327 8 216 9.7 12.9 0.00 0.00 0.05 78 1002.6
20260504233839 8 224 3.2 14.5 0.00 0.00 0.05 78 1002.6
20260504233334 9 193 4.8 14.5 0.00 0.00 0.05 77 1002.6
20260504232825 9 205 8.0 12.9 0.00 0.00 0.05 76 1002.6
20260504232340 10 200 4.8 16.1 0.00 0.00 0.05 74 1002.5
20260504231855 10 191 6.4 16.1 0.00 0.00 0.05 73 1002.5
20260504231332 10 256 6.4 14.5 0.00 0.00 0.05 72 1002.5
20260504230827 11 216 6.4 14.5 0.00 0.00 0.05 70 1002.1
20260504230341 11 200 1.6 12.9 0.00 0.00 0.05 68 1002.1
20260504225854 12 184 8.0 12.9 0.00 0.00 0.05 64 1002.1
20260504225325 12 232 4.8 14.5 0.00 0.00 0.05 61 1001.8
20260504224839 12 250 8.0 17.7 0.00 0.00 0.05 60 1001.8
20260504224339 12 243 8.0 17.7 0.00 0.00 0.05 61 1001.8
20260504223854 12 248 8.0 14.5 0.00 0.00 0.05 61 1001.8
20260504223328 12 233 6.4 24.1 0.00 0.00 0.05 62 1001.8
20260504222822 12 248 9.7 24.1 0.00 0.00 0.05 63 1001.8
20260504222329 12 282 9.7 24.1 0.00 0.00 0.05 65 1001.9
20260504221846 12 250 8.0 16.1 0.00 0.00 0.05 66 1001.9
20260504221329 12 232 8.0 16.1 0.00 0.00 0.05 68 1001.9
20260504220824 12 260 4.8 16.1 0.00 0.00 0.05 69 1002.0
20260504220338 11 265 6.4 16.1 0.00 0.00 0.05 68 1002.0
20260504215830 11 248 4.8 12.9 0.00 0.00 0.05 68 1002.0
20260504215324 11 217 6.4 12.9 0.00 0.00 0.05 67 1001.6
20260504214838 12 234 6.4 12.9 0.00 0.00 0.05 66 1001.6
20260504214339 12 208 4.8 16.1 0.00 0.00 0.05 66 1001.6
20260504213833 12 251 3.2 16.1 0.00 0.00 0.05 65 1001.5
20260504213345 12 223 4.8 17.7 0.00 0.00 0.05 66 1001.5
20260504212837 11 224 1.6 17.7 0.00 0.00 0.05 64 1001.5
20260504212348 11 208 6.4 14.5 0.00 0.00 0.05 64 1001.4
20260504211844 11 234 6.4 14.5 0.00 0.00 0.05 64 1001.4
20260504211323 11 220 8.0 16.1 0.00 0.00 0.05 63 1001.4
20260504210839 12 247 6.4 16.1 0.00 0.00 0.05 62 1001.2
20260504210330 12 203 8.0 17.7 0.00 0.00 0.05 61 1001.3
20260504205843 12 227 9.7 17.7 0.00 0.00 0.05 59 1001.3
20260504205357 12 212 11.3 20.9 0.00 0.00 0.05 59 1001.0
20260504204851 12 256 9.7 29.0 0.00 0.00 0.05 57 1001.0
20260504204327 13 284 9.7 29.0 0.00 0.00 0.05 56 1001.0
20260504203821 13 260 11.3 24.1 0.00 0.00 0.05 54 1000.6
20260504203334 13 254 12.9 24.1 0.00 0.00 0.05 51 1000.6
20260504202827 15 264 14.5 29.0 0.00 0.00 0.05 47 1000.6
20260504202321 15 217 9.7 29.0 0.00 0.00 0.05 42 1000.3
20260504201836 16 264 9.7 24.1 0.00 0.00 0.05 42 1000.3
20260504201335 16 215 8.0 22.5 0.00 0.00 0.05 39 1000.3
20260504200828 16 281 12.9 17.7 0.00 0.00 0.05 37 1000.2
20260504200343 16 212 9.7 17.7 0.00 0.00 0.05 37 1000.2
20260504195842 16 253 8.0 17.7 0.00 0.00 0.05 39 1000.2
20260504195359 16 260 6.4 14.5 0.00 0.00 0.05 40 1000.2
20260504160348 13 178 11.3 24.1 0.00 0.00 0.05 40 1000.1
20260504150829 11 256 11.3 25.7 0.00 0.00 0.05 58 1000.0
20260504150324 11 248 11.3 24.1 0.00 0.00 0.05 58 1000.0
20260504141333 10 243 11.3 35.4 0.00 0.00 0.05 67 999.4
20260504140826 10 243 12.9 22.5 0.00 0.00 0.05 69 999.3
20260504140406 10 233 6.4 22.5 0.00 0.00 0.05 69 999.3
20260504130328 7 256 9.7 17.7 0.00 0.00 0.05 84 998.5
20260504022834 2 299 3.2 22.5 0.03 0.00 2.59 100 982.9
20260504022329 2 301 8.0 22.5 0.03 0.00 2.59 100 982.2
20260504021845 2 210 6.4 12.9 0.03 0.00 2.59 100 982.2
20260504021323 2 323 3.2 14.5 0.03 0.00 2.59 100 982.2
20260504020837 2 212 4.8 17.7 0.05 0.00 2.59 100 981.6
20260504020332 2 295 1.6 16.1 0.05 0.00 2.59 100 981.6
20260504015827 2 23 3.2 24.1 0.56 0.00 2.59 100 981.6
20260504015320 2 301 4.8 24.1 0.56 0.00 2.59 100 980.9
20260504014836 2 6 4.8 20.9 0.56 0.00 2.59 100 980.9
20260504014338 2 352 8.0 20.9 0.56 0.00 2.59 100 980.9
20260504013833 2 360 4.8 16.1 0.53 0.00 2.57 100 980.2
20260504013348 2 323 8.0 20.9 0.53 0.00 2.57 100 980.2
20260504012837 2 319 4.8 25.7 0.53 0.00 2.57 100 980.2